This is the latest recevied weather packets stored in our database for station/object K2CCS. If no packets are shown the sender has not sent any weather packets the latest 10 day(s).
| Time | Temp. | Humidity | Pressure | Rain* | Wind** | Luminosity | Snow |
|---|---|---|---|---|---|---|---|
| 1777518833 | 13.33° C | 85% | 1012.2 hPa | 1.27 mm | - | 0 W/m² | - |
| 1777518530 | 13.33° C | 82% | 1012.1 hPa | 1.78 mm | - | 0 W/m² | - |
| 1777518225 | 13.89° C | 80% | 1012 hPa | 1.78 mm | - | 0 W/m² | - |
| 1777517922 | 14.44° C | 77% | 1012.1 hPa | 0 mm | - | 0 W/m² | - |
| 1777517618 | 15° C | 73% | 1011.9 hPa | 0 mm | - | 0 W/m² | - |
| 1777517316 | 15° C | 70% | 1011.9 hPa | 0 mm | - | 0 W/m² | - |
| 1777517015 | 15.56° C | 71% | 1012 hPa | 0 mm | - | 0 W/m² | - |
| 1777516712 | 15.56° C | 70% | 1012.2 hPa | 0 mm | - | 0 W/m² | - |
| 1777516408 | 15.56° C | 70% | 1011.9 hPa | 0 mm | - | 0 W/m² | - |
| 1777516103 | 16.11° C | 66% | 1012 hPa | 0 mm | - | 0 W/m² | - |
| 1777515801 | 16.11° C | 66% | 1011.8 hPa | 0 mm | - | 0 W/m² | - |
| 1777515497 | 16.11° C | 65% | 1012.1 hPa | 0 mm | - | 0 W/m² | - |
| 1777515194 | 16.11° C | 66% | 1012 hPa | 0 mm | - | 0 W/m² | - |
| 1777514890 | 16.67° C | 67% | 1011.9 hPa | 0 mm | - | 0 W/m² | - |
| 1777514587 | 16.67° C | 67% | 1012 hPa | 0 mm | - | 0 W/m² | - |
| 1777514285 | 16.67° C | 66% | 1012.1 hPa | 0 mm | - | 0 W/m² | - |
| 1777513981 | 16.67° C | 64% | 1012.1 hPa | 0 mm | - | 0 W/m² | - |
| 1777513679 | 17.22° C | 62% | 1012 hPa | 0 mm | - | 0 W/m² | - |
| 1777513071 | 17.22° C | 63% | 1011.8 hPa | 0 mm | - | 0 W/m² | - |
| 1777512767 | 17.22° C | 63% | 1011.8 hPa | 0 mm | - | 0 W/m² | - |
| 1777512464 | 17.22° C | 63% | 1011.8 hPa | 0 mm | - | 0 W/m² | - |
| 1777512161 | 17.22° C | 63% | 1011.8 hPa | 0 mm | - | 0 W/m² | - |
| 1777511859 | 17.22° C | 62% | 1011.8 hPa | 0 mm | - | 0 W/m² | - |
| 1777511254 | 17.22° C | 62% | 1011.9 hPa | 0 mm | - | 0 W/m² | - |
| 1777510651 | 17.22° C | 61% | 1011.8 hPa | 0 mm | - | 0 W/m² | - |
* Rain latest hour (hover to see other rain measurements)
** Current wind speed in m/s (hover to see current wind gust speed)